Time,TemperatureF,DewpointF,PressureIn,WindDirection,WindDirectionDegrees,WindSpeedMPH,WindSpeedGustMPH,Humidity,HourlyPrecipIn,Conditions,Clouds,dailyrainin,SoftwareType,DateUTC
2013-04-30 00:01:00,28.0,15.0,-100.00,NW,309,7.0,24.0,58,-99.99,,,-99.99,,2013-04-30 06:01:00,
2013-04-30 00:11:00,28.0,15.0,-100.00,NW,309,7.0,24.0,58,-99.99,,,-99.99,,2013-04-30 06:11:00,
2013-04-30 00:21:00,28.0,15.0,-100.00,NW,313,7.0,22.0,58,-99.99,,,-99.99,,2013-04-30 06:21:00,
2013-04-30 00:31:00,28.0,15.0,-100.00,NW,313,7.0,22.0,58,-99.99,,,-99.99,,2013-04-30 06:31:00,
2013-04-30 00:41:00,28.0,15.0,-100.00,NW,313,7.0,22.0,58,-99.99,,,-99.99,,2013-04-30 06:41:00,
2013-04-30 00:52:00,27.0,15.0,-100.00,NW,309,6.0,17.0,60,-99.99,,,-99.99,,2013-04-30 06:52:00,
2013-04-30 01:01:00,27.0,14.0,-100.00,WNW,297,9.0,20.0,57,-99.99,,,-99.99,,2013-04-30 07:01:00,
2013-04-30 01:11:00,27.0,14.0,-100.00,WNW,297,9.0,20.0,57,-99.99,,,-99.99,,2013-04-30 07:11:00,
2013-04-30 01:21:00,26.0,12.0,-100.00,WNW,301,9.0,25.0,56,-99.99,,,-99.99,,2013-04-30 07:21:00,
2013-04-30 01:31:00,26.0,12.0,-100.00,WNW,301,9.0,25.0,56,-99.99,,,-99.99,,2013-04-30 07:31:00,
2013-04-30 01:41:00,26.0,12.0,-100.00,WNW,301,9.0,25.0,56,-99.99,,,-99.99,,2013-04-30 07:41:00,
2013-04-30 01:52:00,26.0,13.0,-100.00,WNW,296,8.0,21.0,57,-99.99,,,-99.99,,2013-04-30 07:52:00,
2013-04-30 02:02:00,25.0,12.0,-100.00,WNW,294,10.0,20.0,58,-99.99,,,-99.99,,2013-04-30 08:02:00,
2013-04-30 02:11:00,25.0,12.0,-100.00,WNW,294,10.0,20.0,58,-99.99,,,-99.99,,2013-04-30 08:11:00,
2013-04-30 02:21:00,25.0,12.0,-100.00,WNW,286,6.0,21.0,58,-99.99,,,-99.99,,2013-04-30 08:21:00,
2013-04-30 02:32:00,25.0,13.0,-100.00,NW,317,10.0,21.0,59,-99.99,,,-99.99,,2013-04-30 08:32:00,
2013-04-30 02:42:00,25.0,13.0,-100.00,NW,317,10.0,21.0,59,-99.99,,,-99.99,,2013-04-30 08:42:00,
2013-04-30 02:52:00,24.0,13.0,-100.00,WNW,297,7.0,18.0,61,-99.99,,,-99.99,,2013-04-30 08:52:00,
2013-04-30 03:01:00,24.0,13.0,-100.00,WNW,283,4.0,11.0,62,-99.99,,,-99.99,,2013-04-30 09:01:00,
2013-04-30 03:11:00,24.0,13.0,-100.00,WNW,283,4.0,11.0,62,-99.99,,,-99.99,,2013-04-30 09:11:00,
2013-04-30 03:22:00,23.0,13.0,-100.00,West,280,5.0,12.0,64,-99.99,,,-99.99,,2013-04-30 09:22:00,
2013-04-30 03:33:00,23.0,13.0,-100.00,West,280,5.0,12.0,64,-99.99,,,-99.99,,2013-04-30 09:33:00,
2013-04-30 03:43:00,23.0,13.0,-100.00,West,280,5.0,12.0,64,-99.99,,,-99.99,,2013-04-30 09:43:00,
2013-04-30 04:03:00,21.0,12.0,-100.00,WNW,295,6.0,13.0,67,-99.99,,,-99.99,,2013-04-30 10:03:00,
2013-04-30 04:11:00,21.0,12.0,-100.00,WNW,295,6.0,13.0,67,-99.99,,,-99.99,,2013-04-30 10:11:00,
2013-04-30 04:22:00,21.0,11.0,-100.00,WNW,286,6.0,14.0,66,-99.99,,,-99.99,,2013-04-30 10:22:00,
2013-04-30 04:32:00,21.0,11.0,-100.00,WNW,286,6.0,14.0,66,-99.99,,,-99.99,,2013-04-30 10:32:00,
2013-04-30 04:41:00,21.0,11.0,-100.00,WNW,286,6.0,14.0,66,-99.99,,,-99.99,,2013-04-30 10:41:00,
2013-04-30 05:01:00,20.0,11.0,-100.00,WNW,297,6.0,12.0,69,-99.99,,,-99.99,,2013-04-30 11:01:00,
2013-04-30 05:11:00,20.0,11.0,-100.00,WNW,297,6.0,12.0,69,-99.99,,,-99.99,,2013-04-30 11:11:00,
2013-04-30 05:21:00,21.0,12.0,-100.00,WNW,298,7.0,11.0,67,-99.99,,,-99.99,,2013-04-30 11:21:00,
2013-04-30 05:31:00,21.0,12.0,-100.00,WNW,298,7.0,11.0,67,-99.99,,,-99.99,,2013-04-30 11:31:00,
2013-04-30 05:42:00,21.0,12.0,-100.00,WNW,298,7.0,11.0,67,-99.99,,,-99.99,,2013-04-30 11:42:00,
2013-04-30 06:01:00,21.0,12.0,-100.00,NW,308,13.0,18.0,69,-99.99,,,-99.99,,2013-04-30 12:01:00,
2013-04-30 06:11:00,21.0,12.0,-100.00,NW,308,13.0,18.0,69,-99.99,,,-99.99,,2013-04-30 12:11:00,
2013-04-30 06:21:00,20.0,12.0,-100.00,NW,305,14.0,19.0,71,-99.99,,,-99.99,,2013-04-30 12:21:00,
2013-04-30 06:31:00,20.0,12.0,-100.00,NW,305,14.0,19.0,71,-99.99,,,-99.99,,2013-04-30 12:31:00,
2013-04-30 06:41:00,20.0,12.0,-100.00,NW,305,14.0,19.0,71,-99.99,,,-99.99,,2013-04-30 12:41:00,
2013-04-30 07:30:00,19.0,14.0,-100.00,NW,307,13.0,18.0,81,-99.99,,,-99.99,,2013-04-30 13:30:00,
2013-04-30 08:02:00,19.0,14.0,-100.00,NW,307,13.0,18.0,81,-99.99,,,-99.99,,2013-04-30 14:02:00,
2013-04-30 08:11:00,19.0,14.0,-100.00,NW,307,13.0,18.0,81,-99.99,,,-99.99,,2013-04-30 14:11:00,
2013-04-30 08:21:00,19.0,14.0,-100.00,NW,307,13.0,18.0,81,-99.99,,,-99.99,,2013-04-30 14:21:00,
2013-04-30 09:01:00,20.0,14.0,-100.00,NW,306,7.0,15.0,77,-99.99,,,-99.99,,2013-04-30 15:01:00,
2013-04-30 09:11:00,20.0,14.0,-100.00,NW,306,7.0,15.0,77,-99.99,,,-99.99,,2013-04-30 15:11:00,
2013-04-30 09:21:00,20.0,12.0,-100.00,NW,315,9.0,15.0,71,-99.99,,,-99.99,,2013-04-30 15:21:00,
2013-04-30 09:32:00,20.0,12.0,-100.00,NW,315,9.0,15.0,71,-99.99,,,-99.99,,2013-04-30 15:32:00,
2013-04-30 09:42:00,20.0,12.0,-100.00,NW,315,9.0,15.0,71,-99.99,,,-99.99,,2013-04-30 15:42:00,
2013-04-30 10:02:00,21.0,11.0,-100.00,NW,316,12.0,22.0,66,-99.99,,,-99.99,,2013-04-30 16:02:00,
2013-04-30 10:12:00,21.0,11.0,-100.00,NW,316,12.0,22.0,66,-99.99,,,-99.99,,2013-04-30 16:12:00,
2013-04-30 10:22:00,21.0,11.0,-100.00,NW,318,12.0,19.0,64,-99.99,,,-99.99,,2013-04-30 16:22:00,
2013-04-30 10:33:00,22.0,12.0,-100.00,NW,321,11.0,18.0,64,-99.99,,,-99.99,,2013-04-30 16:33:00,
2013-04-30 10:42:00,22.0,12.0,-100.00,NW,321,11.0,18.0,64,-99.99,,,-99.99,,2013-04-30 16:42:00,
2013-04-30 10:52:00,22.0,11.0,-100.00,NW,310,8.0,20.0,62,-99.99,,,-99.99,,2013-04-30 16:52:00,
2013-04-30 11:02:00,22.0,11.0,-100.00,WNW,292,7.0,16.0,61,-99.99,,,-99.99,,2013-04-30 17:02:00,
2013-04-30 11:12:00,22.0,11.0,-100.00,WNW,292,7.0,16.0,61,-99.99,,,-99.99,,2013-04-30 17:12:00,
2013-04-30 11:22:00,22.0,11.0,-100.00,NW,324,12.0,19.0,61,-99.99,,,-99.99,,2013-04-30 17:22:00,
2013-04-30 11:32:00,22.0,11.0,-100.00,NW,324,12.0,19.0,61,-99.99,,,-99.99,,2013-04-30 17:32:00,
2013-04-30 11:42:00,22.0,11.0,-100.00,NW,324,12.0,19.0,61,-99.99,,,-99.99,,2013-04-30 17:42:00,
2013-04-30 11:52:00,22.0,10.0,-100.00,NW,319,15.0,25.0,59,-99.99,,,-99.99,,2013-04-30 17:52:00,
2013-04-30 12:01:00,23.0,10.0,-100.00,NW,324,15.0,25.0,56,-99.99,,,-99.99,,2013-04-30 18:01:00,
2013-04-30 12:11:00,23.0,10.0,-100.00,NW,324,15.0,25.0,56,-99.99,,,-99.99,,2013-04-30 18:11:00,
2013-04-30 12:22:00,24.0,9.0,-100.00,NNW,329,16.0,26.0,53,-99.99,,,-99.99,,2013-04-30 18:22:00,
2013-04-30 12:32:00,25.0,10.0,-100.00,NNW,330,19.0,29.0,52,-99.99,,,-99.99,,2013-04-30 18:32:00,
2013-04-30 12:41:00,25.0,10.0,-100.00,NNW,330,19.0,29.0,52,-99.99,,,-99.99,,2013-04-30 18:41:00,
2013-04-30 12:52:00,25.0,10.0,-100.00,NNW,332,16.0,29.0,52,-99.99,,,-99.99,,2013-04-30 18:52:00,
2013-04-30 13:01:00,27.0,9.0,-100.00,NW,312,11.0,22.0,47,-99.99,,,-99.99,,2013-04-30 19:01:00,
2013-04-30 13:11:00,27.0,9.0,-100.00,NW,312,11.0,22.0,47,-99.99,,,-99.99,,2013-04-30 19:11:00,
2013-04-30 13:21:00,28.0,10.0,-100.00,NW,326,11.0,21.0,46,-99.99,,,-99.99,,2013-04-30 19:21:00,
2013-04-30 13:31:00,28.0,9.0,-100.00,NW,321,11.0,24.0,45,-99.99,,,-99.99,,2013-04-30 19:31:00,
2013-04-30 13:41:00,28.0,9.0,-100.00,NW,321,11.0,24.0,45,-99.99,,,-99.99,,2013-04-30 19:41:00,
2013-04-30 13:52:00,29.0,8.0,-100.00,NW,317,16.0,32.0,41,-99.99,,,-99.99,,2013-04-30 19:52:00,
2013-04-30 14:02:00,28.0,7.0,-100.00,NW,315,20.0,37.0,41,-99.99,,,-99.99,,2013-04-30 20:02:00,
2013-04-30 14:11:00,28.0,7.0,-100.00,NW,315,20.0,37.0,41,-99.99,,,-99.99,,2013-04-30 20:11:00,
2013-04-30 14:21:00,27.0,8.0,-100.00,NW,319,19.0,35.0,43,-99.99,,,-99.99,,2013-04-30 20:21:00,
2013-04-30 14:32:00,27.0,7.0,-100.00,NW,313,21.0,33.0,42,-99.99,,,-99.99,,2013-04-30 20:32:00,
2013-04-30 14:42:00,27.0,7.0,-100.00,NW,313,21.0,33.0,42,-99.99,,,-99.99,,2013-04-30 20:42:00,
2013-04-30 14:52:00,29.0,9.0,-100.00,NW,311,16.0,28.0,43,-99.99,,,-99.99,,2013-04-30 20:52:00,
2013-04-30 15:01:00,27.0,10.0,-100.00,NW,320,14.0,29.0,49,-99.99,,,-99.99,,2013-04-30 21:01:00,
2013-04-30 15:11:00,27.0,10.0,-100.00,NW,320,14.0,29.0,49,-99.99,,,-99.99,,2013-04-30 21:11:00,
2013-04-30 15:22:00,28.0,11.0,-100.00,NW,317,9.0,24.0,49,-99.99,,,-99.99,,2013-04-30 21:22:00,
2013-04-30 15:32:00,28.0,11.0,-100.00,NW,317,9.0,24.0,49,-99.99,,,-99.99,,2013-04-30 21:32:00,
2013-04-30 15:42:00,28.0,11.0,-100.00,NW,317,9.0,24.0,49,-99.99,,,-99.99,,2013-04-30 21:42:00,
2013-04-30 15:53:00,26.0,11.0,-100.00,NW,320,12.0,23.0,53,-99.99,,,-99.99,,2013-04-30 21:53:00,
2013-04-30 16:02:00,26.0,10.0,-100.00,WNW,298,8.0,25.0,50,-99.99,,,-99.99,,2013-04-30 22:02:00,
2013-04-30 16:12:00,26.0,10.0,-100.00,WNW,298,8.0,25.0,50,-99.99,,,-99.99,,2013-04-30 22:12:00,
2013-04-30 16:22:00,26.0,10.0,-100.00,NW,321,9.0,23.0,51,-99.99,,,-99.99,,2013-04-30 22:22:00,
2013-04-30 16:32:00,25.0,9.0,-100.00,NW,320,11.0,23.0,51,-99.99,,,-99.99,,2013-04-30 22:32:00,
2013-04-30 16:41:00,25.0,9.0,-100.00,NW,320,11.0,23.0,51,-99.99,,,-99.99,,2013-04-30 22:41:00,
2013-04-30 16:53:00,26.0,9.0,-100.00,NW,308,10.0,27.0,48,-99.99,,,-99.99,,2013-04-30 22:53:00,
2013-04-30 17:02:00,27.0,9.0,-100.00,NW,313,6.0,17.0,46,-99.99,,,-99.99,,2013-04-30 23:02:00,
2013-04-30 17:11:00,27.0,9.0,-100.00,NW,313,6.0,17.0,46,-99.99,,,-99.99,,2013-04-30 23:11:00,
2013-04-30 17:21:00,26.0,10.0,-100.00,NW,321,8.0,14.0,50,-99.99,,,-99.99,,2013-04-30 23:21:00,
2013-04-30 17:32:00,24.0,10.0,-100.00,NW,314,6.0,14.0,54,-99.99,,,-99.99,,2013-04-30 23:32:00,
2013-04-30 17:42:00,24.0,10.0,-100.00,NW,314,6.0,14.0,54,-99.99,,,-99.99,,2013-04-30 23:42:00,
2013-04-30 17:52:00,23.0,8.0,-100.00,NW,316,4.0,9.0,53,-99.99,,,-99.99,,2013-04-30 23:52:00,
2013-04-30 18:01:00,22.0,9.0,-100.00,NW,322,6.0,14.0,56,-99.99,,,-99.99,,2013-05-01 00:01:00,
2013-04-30 18:11:00,22.0,9.0,-100.00,NW,322,6.0,14.0,56,-99.99,,,-99.99,,2013-05-01 00:11:00,
2013-04-30 18:21:00,21.0,10.0,-100.00,NW,317,9.0,13.0,61,-99.99,,,-99.99,,2013-05-01 00:21:00,
2013-04-30 18:31:00,20.0,12.0,-100.00,NW,310,10.0,17.0,70,-99.99,,,-99.99,,2013-05-01 00:31:00,
2013-04-30 18:42:00,20.0,12.0,-100.00,NW,310,10.0,17.0,70,-99.99,,,-99.99,,2013-05-01 00:42:00,
2013-04-30 18:52:00,19.0,12.0,-100.00,NW,318,12.0,18.0,75,-99.99,,,-99.99,,2013-05-01 00:52:00,
2013-04-30 19:01:00,19.0,12.0,-100.00,NW,317,14.0,19.0,75,-99.99,,,-99.99,,2013-05-01 01:01:00,
2013-04-30 19:11:00,19.0,12.0,-100.00,NW,317,14.0,19.0,75,-99.99,,,-99.99,,2013-05-01 01:11:00,
2013-04-30 19:21:00,20.0,12.0,-100.00,NW,320,14.0,18.0,72,-99.99,,,-99.99,,2013-05-01 01:21:00,
2013-04-30 19:31:00,18.0,12.0,-100.00,NW,314,12.0,19.0,76,-99.99,,,-99.99,,2013-05-01 01:31:00,
2013-04-30 19:41:00,18.0,12.0,-100.00,NW,314,12.0,19.0,76,-99.99,,,-99.99,,2013-05-01 01:41:00,
2013-04-30 19:52:00,18.0,12.0,-100.00,NW,312,12.0,19.0,76,-99.99,,,-99.99,,2013-05-01 01:52:00,
2013-04-30 20:02:00,18.0,11.0,-100.00,NW,317,14.0,21.0,73,-99.99,,,-99.99,,2013-05-01 02:02:00,
2013-04-30 20:11:00,18.0,11.0,-100.00,NW,317,14.0,21.0,73,-99.99,,,-99.99,,2013-05-01 02:11:00,
2013-04-30 20:21:00,18.0,10.0,-100.00,NW,312,17.0,22.0,71,-99.99,,,-99.99,,2013-05-01 02:21:00,
2013-04-30 20:32:00,18.0,11.0,-100.00,NW,310,16.0,21.0,74,-99.99,,,-99.99,,2013-05-01 02:32:00,
2013-04-30 20:42:00,18.0,11.0,-100.00,NW,310,16.0,21.0,74,-99.99,,,-99.99,,2013-05-01 02:42:00,
2013-04-30 20:52:00,17.0,11.0,-100.00,NW,305,16.0,21.0,76,-99.99,,,-99.99,,2013-05-01 02:52:00,
2013-04-30 21:01:00,17.0,10.0,-100.00,WNW,299,12.0,17.0,74,-99.99,,,-99.99,,2013-05-01 03:01:00,
2013-04-30 21:11:00,17.0,10.0,-100.00,WNW,299,12.0,17.0,74,-99.99,,,-99.99,,2013-05-01 03:11:00,
2013-04-30 21:21:00,18.0,11.0,-100.00,WNW,299,6.0,11.0,72,-99.99,,,-99.99,,2013-05-01 03:21:00,
2013-04-30 21:32:00,18.0,11.0,-100.00,WNW,297,3.0,9.0,73,-99.99,,,-99.99,,2013-05-01 03:32:00,
2013-04-30 21:42:00,18.0,11.0,-100.00,WNW,297,3.0,9.0,73,-99.99,,,-99.99,,2013-05-01 03:42:00,
2013-04-30 21:53:00,18.0,13.0,-100.00,SSE,154,2.0,4.0,81,-99.99,,,-99.99,,2013-05-01 03:53:00,
2013-04-30 22:03:00,18.0,15.0,-100.00,SSE,158,3.0,4.0,88,-99.99,,,-99.99,,2013-05-01 04:03:00,
2013-04-30 22:12:00,18.0,15.0,-100.00,SSE,158,3.0,4.0,88,-99.99,,,-99.99,,2013-05-01 04:12:00,
2013-04-30 22:22:00,17.0,14.0,-100.00,SE,140,3.0,5.0,88,-99.99,,,-99.99,,2013-05-01 04:22:00,
2013-04-30 22:32:00,17.0,15.0,-100.00,ESE,117,3.0,7.0,90,-99.99,,,-99.99,,2013-05-01 04:32:00,
2013-04-30 22:42:00,17.0,15.0,-100.00,ESE,117,3.0,7.0,90,-99.99,,,-99.99,,2013-05-01 04:42:00,
2013-04-30 22:52:00,17.0,15.0,-100.00,SE,138,3.0,5.0,90,-99.99,,,-99.99,,2013-05-01 04:52:00,
2013-04-30 23:02:00,17.0,14.0,-100.00,SSE,165,4.0,5.0,89,-99.99,,,-99.99,,2013-05-01 05:02:00,
2013-04-30 23:11:00,17.0,14.0,-100.00,SSE,165,4.0,5.0,89,-99.99,,,-99.99,,2013-05-01 05:11:00,
2013-04-30 23:21:00,17.0,14.0,-100.00,NE,34,2.0,5.0,87,-99.99,,,-99.99,,2013-05-01 05:21:00,
2013-04-30 23:32:00,17.0,14.0,-100.00,NNW,334,7.0,9.0,86,-99.99,,,-99.99,,2013-05-01 05:32:00,
2013-04-30 23:41:00,17.0,14.0,-100.00,NNW,334,7.0,9.0,86,-99.99,,,-99.99,,2013-05-01 05:41:00,
2013-04-30 23:52:00,17.0,14.0,-100.00,North,350,5.0,8.0,88,-99.99,,,-99.99,,2013-05-01 05:52:00,